Flag for Canada Weather past 2 weeks in Oakville, Ontario, Canada

Now
23 °F

Cold.


Feels Like: 14 °F
Forecast: 20 / 34 °F
Wind: 7 mph from Southeast

Location: Burlington Piers

Current Time: Jan 29, 2015 at 4:15:35 AM

Latest Report: Jan 29, 2015 at 3:00 AM


Visibility: N/A

Pressure: 30.23 "Hg

Humidity: 73%

Dew point: 15 °F

Location of OakvilleLocation

Historic Weather in Oakville — Graph

°F

Oakville temperature yesterday

Maximum temperature yesterday: 28 °F (at 4:00 PM)
Minimum temperature yesterday: 8 °F (at 8:00 AM)
Average temperature yesterday: 18 °F

Past Weeks' High & Low Weather Summary

 TemperatureHumidityPressure
High44 °F (Jan 18, 4:00 AM)92% (Jan 14, 8:00 AM)30.48 "Hg (Jan 14, 8:00 AM)
Low6 °F (Jan 14, 8:00 AM)32% (Jan 16, 2:00 PM)29.49 "Hg (Jan 24, 3:00 PM)
Average23 °F68%30.04 "Hg
* Reported Jan 14 3:00 AM — Jan 29 3:00 AM, Oakville, Weather by CustomWeather, © 2014

Note: Actual official high and low records may vary slightly from our data, if they occured in-between our weather recording intervals... More about our weather records

Advertising

Oakville weather history for previous 24 hours

 ConditionsComfort  
Time TempWeatherWind HumidityBarometerVisibility
3:00 AM
Jan 29
23 °FCold.7 mph73%30.23 "HgN/A
2:00 AM22 °FCold.1 mph74%30.24 "HgN/A
1:00 AM21 °FCold.1 mph71%30.25 "HgN/A
12:00 AM21 °FCold.1 mph70%30.27 "HgN/A
11:00 PM
Jan 28
20 °FCold.2 mph70%30.29 "HgN/A
10:00 PM21 °FCold.5 mph68%30.31 "HgN/A
9:00 PM22 °FCold.3 mph62%30.31 "HgN/A
8:00 PM22 °FCold.2 mph63%30.32 "HgN/A
7:00 PM24 °FCold.3 mph58%30.33 "HgN/A
6:00 PM28 °FChilly.6 mph48%30.32 "HgN/A
5:00 PM27 °FChilly.6 mph32%30.32 "HgN/A
4:00 PM28 °FChilly.6 mph33%30.32 "HgN/A
3:00 PM26 °FChilly.3 mph37%30.31 "HgN/A
2:00 PM26 °FChilly.3 mph36%30.31 "HgN/A
1:00 PM28 °FChilly.3 mph39%30.33 "HgN/A
12:00 PM21 °FCold.5 mph52%30.36 "HgN/A
11:00 AM17 °FCold.6 mph60%30.36 "HgN/A
10:00 AM13 °FCold.9 mph69%30.35 "HgN/A
9:00 AM9 °FFrigid.8 mph75%30.34 "HgN/A
8:00 AM8 °FFrigid.8 mph77%30.32 "HgN/A
7:00 AM9 °FFrigid.7 mph75%30.29 "HgN/A
6:00 AM10 °FFrigid.8 mph74%30.27 "HgN/A
5:00 AM10 °FFrigid.7 mph75%30.25 "HgN/A
4:00 AM10 °FFrigid.7 mph75%30.23 "HgN/A
Weather by CustomWeather, © 2014

See weather overviewHow to use our weather pages